Location: Ferma
(41.9500°N, 44.5167°E)
Time: 20:15:53
(UTC+00:00)

FENGYUN 1C DEB - Pass Details

Date: 17 August 2022
Orbit: 606 x 930 km, 99.7° (Epoch: 01 October)

Event Time Altitude Azimuth Distance (km) Brightness Sun altitude
Exits shadow 17:58:54 35° 163° (SSE) 1,257 ? -20.0°
Maximum altitude 18:01:11 89° 74° (ENE) 818 ? -20.4°
Drops below altitude 10° 18:06:47 10° 345° (NNW) 2,510 ? -21.1°
Sets 18:09:16 0° 346° (NNW) 3,491 ? -21.5°
